Theta_e
305 312 320 319 320 318 317 321 322 320 319 318 318 318 317 317 317 315 315 314 316 316 317 316 317 316 317 316 313 311 319 318 317 315 317 315 318 317 316 318 317 320 334 338 340
307 306 317 320 320 320 318 318 321 322 320 319 318 318 317 316 315 315 315 315 315 317 316 317 317 316 317 316 315 317 318 318 315 314 315 315 316 317 318 317 319 318 340 339 340
309 306 307 319 319 319 319 317 320 321 320 319 318 318 317 315 314 313 315 316 315 315 316 317 314 316 316 314 315 314 319 315 315 314 315 316 316 315 317 319 319 320 320 339 341
310 307 306 309 314 318 319 318 318 321 321 320 319 317 316 314 319 316 315 314 314 314 314 313 314 316 317 317 313 316 314 314 316 313 317 318 317 317 316 320 319 318 317 336 340
309 309 307 306 310 318 319 319 317 320 322 320 319 317 315 315 316 316 315 316 314 314 312 313 314 314 316 314 315 315 315 314 315 316 316 316 318 317 318 318 317 316 315 317 327
307 309 308 306 306 318 320 320 318 319 321 320 318 316 314 317 316 315 314 315 314 313 312 313 313 313 315 316 317 315 316 316 315 317 316 318 318 316 319 317 317 316 317 317 317
307 308 308 307 306 311 314 321 319 317 321 320 317 315 314 316 316 314 314 314 314 314 314 314 314 316 316 316 315 315 317 315 314 314 315 316 318 318 319 316 319 320 320 319 319
307 307 308 308 307 308 313 320 319 317 321 319 316 314 316 316 315 316 316 315 315 314 314 314 314 315 316 315 314 316 314 316 313 316 315 318 317 316 315 319 320 321 322 322 323
307 307 308 307 306 307 311 320 320 317 321 317 315 313 317 315 314 317 315 315 314 314 314 314 313 314 315 317 316 314 313 312 312 313 315 317 317 316 317 317 318 319 321 322 322
306 307 308 308 306 306 311 319 319 318 316 315 315 316 315 316 315 315 315 314 313 313 315 315 314 314 314 316 313 314 315 313 314 314 316 317 318 318 317 315 317 317 318 321 322
306 307 307 308 307 306 310 317 316 316 315 318 317 318 313 314 314 313 314 313 313 314 316 314 315 315 314 315 311 311 313 313 313 315 315 314 316 318 317 315 316 318 320 322 323
306 307 308 308 307 306 310 318 316 315 319 316 315 316 315 315 315 314 313 315 315 315 313 315 317 315 312 312 314 314 314 314 313 312 313 315 315 315 316 317 317 319 320 323 323
307 307 308 308 307 307 310 313 316 317 319 318 317 316 315 315 317 315 313 313 315 314 315 315 315 314 314 313 313 313 313 313 312 313 314 317 317 319 319 318 319 321 321 322 321
307 307 308 309 307 307 309 312 316 315 319 317 319 319 317 314 315 313 313 314 314 315 314 314 313 315 314 314 314 314 313 313 313 314 315 320 318 320 322 324 324 324 324 324 322
307 307 308 308 306 307 309 314 316 314 318 314 318 317 317 317 315 314 313 317 316 314 314 315 313 315 316 315 314 315 315 315 316 317 319 320 322 319 322 324 326 326 326 323 324
308 308 308 308 306 307 309 312 316 318 317 314 317 320 320 318 315 313 317 317 316 313 314 313 315 314 315 315 315 317 322 321 321 322 327 322 321 317 322 324 324 325 324 323 327
307 308 308 307 307 306 309 310 321 321 311 319 318 319 320 319 318 314 317 320 321 321 320 319 319 318 317 318 317 321 322 320 326 327 322 321 324 322 323 323 324 326 325 324 327
307 308 308 307 306 307 310 313 321 318 313 316 318 317 318 317 318 316 315 321 320 318 315 318 318 320 320 321 320 321 321 325 320 324 319 323 328 324 324 323 323 322 323 323 327
307 308 308 306 306 306 310 313 319 316 313 317 318 318 316 314 315 316 315 316 319 319 314 317 315 317 319 319 320 322 323 320 322 322 324 319 321 321 323 324 324 324 325 324 328
308 308 307 306 306 307 307 311 311 315 313 316 316 317 318 316 314 315 315 313 315 317 315 316 315 316 317 318 318 321 322 326 327 326 323 321 324 323 326 325 326 327 327 326 328
307 307 305 305 306 308 308 309 310 309 314 315 316 318 316 317 315 314 314 313 313 315 316 318 317 322 318 319 319 319 323 324 326 325 325 323 321 324 326 327 326 326 327 327 329
301 305 301 304 305 303 309 307 309 313 312 313 315 316 317 316 316 314 315 312 312 314 318 317 322 323 320 322 317 319 320 324 325 326 327 325 322 320 324 323 325 325 326 326 327
299 302 303 304 307 306 306 308 311 314 312 312 315 318 316 317 318 316 315 314 314 314 317 317 321 320 319 319 322 319 319 320 322 323 327 331 326 320 322 323 323 326 326 324 323
300 304 303 305 303 306 308 310 310 312 314 312 315 318 319 318 318 318 317 322 316 313 318 316 319 316 316 318 323 325 321 320 321 324 323 325 324 323 323 324 322 323 323 322 320
299 303 305 307 305 305 308 311 312 314 314 315 317 318 320 319 319 319 319 324 322 317 319 319 319 318 316 322 321 323 325 324 321 321 326 325 325 324 324 323 322 322 320 318 316
300 303 300 303 305 305 308 311 312 313 314 314 315 317 319 320 319 323 320 324 325 322 319 321 324 323 320 319 323 326 324 323 326 325 325 325 326 323 317 318 319 320 319 318 317
301 303 305 305 305 306 309 312 314 313 311 313 314 316 319 320 319 319 320 321 322 322 321 321 324 327 329 326 327 328 327 326 325 324 326 329 327 321 319 319 320 319 316 314 312
Wind_Speed
16 15 19 17 18 20 19 17 17 16 15 15 16 16 18 22 24 21 6 4 3 3 3 3 2 2 2 3 2 2 3 3 3 6 1 2 7 1 3 2 2 2 2 1 5
18 17 14 18 20 20 20 19 17 17 15 15 15 16 17 20 23 14 6 8 6 4 1 2 0 2 2 2 1 2 3 7 2 3 1 3 3 7 1 5 2 3 3 1 9
21 18 18 15 18 21 19 19 18 17 15 14 14 15 16 16 6 3 6 1 3 2 1 1 2 1 1 1 2 3 4 3 1 3 3 2 4 2 2 1 5 2 2 3 8
26 22 20 20 17 23 20 19 19 17 16 14 13 14 14 7 4 1 7 5 2 2 2 3 2 2 2 3 2 2 3 3 0 2 3 6 6 4 6 9 5 5 3 4 10
29 26 24 22 18 17 21 20 19 18 16 13 11 10 7 3 7 11 9 5 4 1 3 2 3 3 3 2 2 3 2 2 3 7 7 4 12 6 14 11 12 10 8 11 12
31 30 28 24 20 15 17 21 19 19 16 13 9 7 2 7 8 10 6 4 2 2 2 2 3 3 2 2 2 1 3 6 6 10 6 6 7 2 14 1 8 5 8 8 10
33 32 31 26 22 22 16 22 20 19 17 14 9 5 4 13 7 4 3 1 2 3 2 2 4 2 3 0 0 1 5 7 6 3 7 6 6 10 17 5 7 4 3 6 10
35 34 33 29 25 24 19 21 20 19 18 13 9 4 7 8 13 28 23 16 11 3 1 3 2 3 1 1 3 1 2 4 1 3 2 7 9 7 5 2 8 10 7 7 10
38 36 35 31 28 25 21 23 21 19 18 13 7 4 8 5 7 27 20 11 7 4 3 1 2 2 2 3 2 4 4 4 7 1 2 6 7 3 2 7 11 12 12 10 12
42 39 37 35 29 27 24 24 23 16 14 12 3 3 7 5 7 8 15 18 4 6 2 2 3 3 3 6 9 5 4 4 7 1 2 4 14 16 10 11 15 18 16 14 14
43 41 40 36 33 28 27 16 10 4 11 9 9 5 2 3 7 6 8 13 7 4 9 3 6 13 17 12 3 5 3 6 5 4 7 15 17 14 15 15 22 20 16 13 15
44 43 41 40 36 29 26 10 23 10 6 14 3 15 13 3 2 6 13 10 11 15 9 5 17 14 7 9 10 7 8 11 14 11 6 10 16 18 19 23 19 21 18 16 15
46 45 43 40 34 27 28 38 28 19 5 10 15 8 5 10 6 6 13 5 9 14 20 19 6 15 13 10 10 9 11 8 11 9 8 10 16 8 7 14 15 16 16 14 11
46 46 44 38 29 26 29 42 28 13 4 11 13 15 15 5 8 15 17 6 5 19 11 13 10 8 14 15 13 10 12 10 9 5 8 3 10 10 7 12 12 17 12 10 8
47 47 46 47 20 25 34 28 37 16 9 14 17 13 18 21 9 13 17 4 9 9 9 10 10 19 15 9 16 7 6 10 4 6 4 5 7 3 1 6 14 14 13 7 5
45 48 47 43 31 30 32 36 23 9 13 11 13 19 19 24 17 7 13 4 4 8 4 7 2 9 8 6 18 9 7 4 3 2 8 13 11 15 8 13 5 12 8 7 8
42 48 50 41 32 36 29 17 14 13 11 14 12 21 24 18 27 14 18 21 11 10 12 5 8 3 4 7 10 10 9 2 3 4 10 6 13 19 6 8 10 10 9 8 9
41 49 50 48 39 28 27 15 19 18 23 14 16 22 22 18 21 26 20 19 23 10 9 14 10 15 9 7 10 18 11 6 8 5 7 4 9 6 17 17 13 8 8 5 11
40 43 40 42 35 31 13 18 11 27 29 18 23 22 15 17 13 23 29 29 23 22 15 11 11 7 10 6 12 7 11 8 5 4 7 9 13 10 8 11 7 12 9 9 11
39 24 27 38 33 18 7 27 6 15 24 22 18 13 19 26 15 23 25 22 21 28 13 7 4 6 15 13 14 9 12 4 3 6 9 7 9 11 5 13 12 12 8 7 12
16 7 16 31 23 8 11 8 18 20 19 24 16 10 14 22 19 24 26 10 30 23 21 5 4 2 11 12 19 8 8 5 6 5 6 5 8 5 12 12 11 12 8 11 14
3 6 18 31 9 3 7 8 10 15 25 22 10 5 15 22 20 19 19 24 21 23 29 21 4 6 10 1 8 20 17 13 7 7 6 6 13 4 4 5 7 9 7 11 12
5 2 16 24 9 13 4 9 15 18 17 27 7 5 10 16 11 16 18 12 10 25 22 20 7 6 4 7 4 13 14 16 13 2 15 7 11 3 1 2 1 6 10 10 9
3 4 2 6 3 12 10 12 20 13 20 13 14 9 8 12 4 19 9 3 11 26 10 22 5 20 17 5 10 10 20 17 18 10 22 16 26 15 4 2 4 8 10 11 9
3 4 2 5 9 12 23 15 21 9 22 7 5 16 10 8 14 8 12 5 4 12 11 13 15 14 15 2 9 12 18 21 20 25 13 26 20 24 12 9 10 11 12 12 10
4 4 3 2 7 18 17 21 29 28 13 21 12 12 6 10 9 10 14 6 7 3 14 3 4 7 12 12 9 4 11 25 26 24 22 28 30 6 2 6 9 14 15 14 14
6 3 3 6 5 13 10 15 25 25 7 32 13 13 5 3 9 8 6 7 10 14 14 11 6 4 8 6 6 4 22 19 14 20 18 22 26 6 8 13 16 17 16 16 15
Wind_Direction
274 283 258 259 273 268 265 269 272 273 283 296 306 316 325 326 324 324 286 266 276 269 286 333 92 61 101 97 89 136 102 188 227 170 178 17 3 291 343 317 313 218 159 342 150
279 266 264 238 255 259 264 264 271 272 278 290 302 312 323 329 327 298 298 273 257 251 282 73 137 30 79 89 85 121 174 210 212 195 245 317 307 307 134 352 302 310 95 85 163
271 272 256 240 250 258 256 264 260 262 269 281 295 308 320 333 326 273 355 357 227 197 167 110 102 103 127 161 185 158 211 204 214 233 282 269 270 254 75 244 230 228 231 191 190
268 268 263 257 268 251 256 255 253 259 258 269 287 305 318 323 267 45 11 16 315 156 124 116 95 126 161 207 156 232 233 197 312 158 306 295 298 272 190 234 236 210 212 188 212
264 264 266 260 259 258 242 246 250 251 254 259 275 301 326 253 250 277 307 305 318 93 94 117 152 152 194 187 159 205 278 186 290 298 276 284 263 280 274 259 263 280 257 242 238
259 260 260 264 244 240 237 242 245 247 246 248 262 282 253 243 269 266 282 259 314 40 108 124 170 184 148 182 190 190 281 274 263 256 244 236 261 260 263 291 282 274 266 254 245
256 254 256 257 252 241 258 230 233 242 237 238 236 248 236 235 265 238 263 319 347 350 112 126 138 162 141 200 27 152 303 309 227 251 236 212 247 224 254 293 278 281 236 254 264
249 249 250 253 254 237 251 223 223 232 230 224 224 196 246 261 261 261 258 270 273 256 194 159 139 108 149 116 25 356 107 304 308 171 337 201 265 252 273 258 312 295 276 258 269
242 243 244 248 245 245 234 218 211 223 217 203 198 189 263 251 234 246 241 221 235 216 174 156 107 117 92 126 347 12 261 247 304 213 151 217 278 294 121 313 304 301 285 277 284
239 237 234 237 239 244 226 217 198 203 186 166 185 177 237 220 209 219 224 212 166 132 119 109 62 163 134 171 228 187 226 233 250 64 116 239 261 277 278 292 290 292 291 284 281
235 232 229 228 234 234 222 168 144 190 204 188 176 243 102 281 253 208 175 162 139 148 185 177 202 212 196 204 157 134 195 268 265 224 315 269 265 265 281 282 283 280 272 269 265
229 227 224 225 227 225 219 224 192 147 186 234 142 237 257 2 307 208 165 160 179 197 148 196 232 222 214 191 212 209 237 259 288 282 200 277 267 267 259 260 257 264 271 266 271
225 222 218 213 217 217 217 228 193 150 177 188 214 201 222 197 231 227 179 156 186 181 193 205 214 199 196 197 197 222 218 229 255 314 266 293 280 257 249 249 258 256 254 263 267
221 218 214 198 203 208 224 218 216 200 218 196 197 217 216 168 245 203 189 158 186 202 172 227 211 157 199 221 198 238 212 223 235 274 272 2 294 279 251 251 266 276 256 255 273
216 215 207 195 194 191 216 194 197 188 211 193 183 176 188 195 125 201 182 169 176 167 171 214 187 200 210 196 183 218 172 193 188 209 310 241 275 232 209 245 251 250 249 228 223
214 209 201 197 205 219 203 189 218 214 199 156 142 174 158 201 196 130 176 199 158 166 241 215 192 196 207 188 171 146 125 107 84 159 259 212 218 279 216 235 241 254 256 209 189
210 202 193 192 208 209 203 196 213 208 156 152 162 172 173 178 199 177 184 192 178 180 202 187 218 206 166 121 166 166 140 192 220 191 249 186 212 258 254 243 231 231 236 201 186
205 195 189 200 203 200 200 201 231 173 193 146 152 169 184 157 200 193 183 195 213 205 182 203 222 190 182 177 170 190 179 182 206 206 276 139 237 252 225 232 236 239 249 210 190
200 187 191 198 202 204 206 219 218 163 186 149 146 161 197 183 164 182 200 203 198 200 205 188 229 174 188 176 150 179 217 217 269 224 275 251 268 268 240 236 225 236 232 216 191
186 183 195 193 201 217 221 219 216 212 187 165 165 180 174 179 167 184 188 209 207 201 200 196 206 199 189 195 223 199 139 166 211 217 234 242 262 240 211 220 228 237 229 198 185
178 183 182 182 177 219 222 221 224 256 257 196 179 154 174 171 182 185 191 188 195 192 198 166 188 115 150 203 185 174 194 199 168 191 220 275 262 211 220 205 219 240 213 194 185
114 175 161 164 195 187 237 191 199 248 239 208 190 131 163 173 176 183 193 199 191 178 192 200 141 185 197 134 208 211 204 176 192 194 232 251 265 150 117 157 198 246 203 177 179
125 123 157 160 204 216 215 204 197 216 233 209 204 146 168 165 166 185 200 197 174 181 185 180 204 189 234 263 186 213 209 211 216 108 218 188 252 138 274 159 282 221 175 161 149
147 140 203 180 181 216 202 202 203 233 234 198 203 156 147 170 175 188 181 161 183 190 163 165 160 208 213 208 155 196 202 205 198 215 238 226 252 241 222 205 156 175 170 158 149
163 190 133 189 220 208 205 183 197 209 215 204 187 194 176 160 186 171 172 131 101 180 166 170 210 205 223 75 181 203 193 198 198 218 205 248 234 256 255 221 201 173 159 152 150
153 152 156 203 167 190 210 203 193 203 189 215 175 188 155 163 197 175 160 156 164 110 175 177 187 169 228 220 218 221 218 219 213 222 232 249 261 258 264 147 177 190 173 168 165
184 135 119 165 213 193 205 198 193 174 230 204 187 171 106 122 108 89 79 96 145 163 176 165 150 144 229 175 160 229 231 231 225 232 231 234 249 203 220 206 192 186 181 169 157